Weather reports worldwide

Advertisment
High Wycombe, United Kingdom (3660): temperature & dewpoint: 15.06.2018 22:00:00 - 21.06.2018 22:00:00 (BST)High Wycombe, United Kingdom (3660): wind speed: 15.06.2018 22:00:00 - 21.06.2018 22:00:00 (BST)High Wycombe, United Kingdom (3660): wind direction: 15.06.2018 22:00:00 - 21.06.2018 22:00:00 (BST)High Wycombe, United Kingdom (3660): reduced air pressure: 15.06.2018 22:00:00 - 21.06.2018 22:00:00 (BST)High Wycombe, United Kingdom (3660): visibility: 15.06.2018 22:00:00 - 21.06.2018 22:00:00 (BST)High Wycombe, United Kingdom (3660): precipitation: 15.06.2018 22:00:00 - 21.06.2018 22:00:00 (BST)
Date & Time tt [°C] td [°C] ff [km/h] ff [kn] dd ppp [hPa] vv [km] rr [mm]
21.06.2018 22:00:00 11,6 4,4 8 4 NNW 1029,6 40 0,0
21.06.2018 21:00:00 13,5 4,9 8 4 N 1028,9 45 0,0
21.06.2018 20:00:00 16,3 4,7 11 6 N 1028,3 35 0,0
21.06.2018 19:00:00 17,8 4,7 11 6 N 1027,8 45 0,0
21.06.2018 18:00:00 15,6 4,3 11 6 N 1027,8 50 0,0
21.06.2018 17:00:00 17,1 4,3 13 7 N 1027,3 30 0,0
21.06.2018 16:00:00 17,1 5,5 11 6 N 1027,0 40 0,0
21.06.2018 15:00:00 16,1 3,9 13 7 N 1026,7 35 0,0
21.06.2018 14:00:00 17,4 5,9 13 7 N 1026,3 22 0,0
21.06.2018 13:00:00 15,7 5,8 15 8 N 1026,2 35 0,0
21.06.2018 12:00:00 14,8 5,0 13 7 NNW 1026,1 26 0,0
21.06.2018 11:00:00 14,5 6,5 15 8 NW 1025,6 19 0,0
21.06.2018 10:00:00 14,1 5,8 18 10 N 1025,0 26 0,0
21.06.2018 09:00:00 12,4 5,7 13 7 NNW 1024,8 20 0,0
21.06.2018 08:00:00 11,5 5,5 15 8 NNW 1024,3 29 0,0
21.06.2018 07:00:00 10,7 6,3 13 7 NW 1023,6 40 0,0
21.06.2018 06:00:00 8,9 6,3 11 6 NNW 1023,7 23 0,0
21.06.2018 05:00:00 7,6 5,8 8 4 NW 1023,1 24 0,0
21.06.2018 04:00:00 7,6 5,6 8 4 NNW 1022,9 26 0,0
21.06.2018 03:00:00 8,7 5,6 8 4 NNW 1022,7 29 0,0
21.06.2018 02:00:00 10,2 5,6 9 5 N 1022,3 24 0,0
21.06.2018 01:00:00 10,9 5,7 8 4 NNW 1022,0 35 0,0
21.06.2018 00:00:00 12,2 6,7 9 5 NNW 1021,5 40 0,0
20.06.2018 23:00:00 13,2 8,4 11 6 NNW 1021,0 30 0,0
20.06.2018 22:00:00 14,8 10,3 13 7 N 1020,2 27 0,0
20.06.2018 21:00:00 16,7 12,8 11 6 W 1019,2 45 0,0
20.06.2018 20:00:00 18,5 13,3 13 7 W 1018,8 30 0,0
20.06.2018 19:00:00 18,7 14,9 13 7 W 1018,9 28 0,0
20.06.2018 18:00:00 18,8 15,6 13 7 WNW 1019,0 29 0,0
20.06.2018 17:00:00 22,4 16,9 15 8 WNW 1018,6 24 0,0
20.06.2018 16:00:00 21,8 16,4 11 6 W 1018,8 40 0,0
20.06.2018 15:00:00 20,3 15,9 9 5 W 1019,1 30 0,0
20.06.2018 14:00:00 21,9 16,3 13 7 WSW 1019,0 29 0,0
20.06.2018 13:00:00 19,6 16,1 11 6 SW 1019,7 23 0,0
20.06.2018 12:00:00 18,1 15,1 11 6 SW 1020,0 35 0,0
20.06.2018 11:00:00 17,4 15,0 13 7 SSW 1020,2 30 0,0
20.06.2018 10:00:00 16,4 14,7 9 5 SW 1020,7 26 0,0
20.06.2018 09:00:00 14,9 14,6 13 7 SW 1021,0 7 0,0
20.06.2018 08:00:00 14,7 14,7 13 7 SW 1021,0 7 0,0
20.06.2018 07:00:00 14,5 14,5 11 6 SW 1020,8 5 0,0
20.06.2018 06:00:00 14,2 14,1 9 5 SSW 1020,7 0,1 0,0
20.06.2018 05:00:00 13,9 13,7 11 6 SSW 1020,9 0,1 0,0
20.06.2018 04:00:00 14,8 14,4 8 4 SSW 1020,9 1,6 0,0
20.06.2018 03:00:00 16,1 14,8 9 5 SW 1021,2 24 0,0
20.06.2018 02:00:00 16,3 15,3 8 4 W 1021,7 26 0,0
20.06.2018 01:00:00 15,9 14,9 2 1 WSW 1022,1 20 0,0
20.06.2018 00:00:00 16,7 15,4 5 3 W 1022,3 30 0,0
19.06.2018 23:00:00 16,4 15,0 4 2 WSW 1022,6 35 0,0
19.06.2018 22:00:00 17,5 15,3 5 3 W 1022,6 45 0,0
19.06.2018 21:00:00 19,2 15,8 9 5 WNW 1022,0 45 0,0
19.06.2018 20:00:00 19,9 16,7 8 4 WSW 1021,8 35 0,0
19.06.2018 19:00:00 20,4 16,4 11 6 SW 1021,9 50 0,0
19.06.2018 18:00:00 20,4 16,0 13 7 SW 1022,0 40 0,0
19.06.2018 17:00:00 21,4 16,2 9 5 WSW 1022,1 45 0,0
19.06.2018 16:00:00 20,4 15,2 11 6 WSW 1022,5 45 0,0
19.06.2018 15:00:00 20,5 15,9 8 4 WSW 1022,7 40 0,0
19.06.2018 14:00:00 20,5 15,5 9 5 W 1022,7 35 0,0
19.06.2018 13:00:00 20,2 14,7 11 6 WSW 1022,9 45 0,0
19.06.2018 12:00:00 20,2 14,9 9 5 W 1023,1 30 0,0
19.06.2018 11:00:00 19,2 15,2 8 4 W 1023,0 25 0,0
19.06.2018 10:00:00 18,4 14,4 8 4 W 1023,2 50 0,0
19.06.2018 09:00:00 17,6 14,8 8 4 W 1023,1 28 0,0
19.06.2018 08:00:00 16,4 14,1 8 4 W 1023,0 50 0,0
19.06.2018 07:00:00 16,2 14,2 9 5 W 1022,5 30 0,0
19.06.2018 06:00:00 14,8 13,5 9 5 W 1022,4 29 0,0
19.06.2018 05:00:00 14,6 13,5 11 6 W 1021,9 35 0,0
19.06.2018 04:00:00 14,9 14,4 15 8 W 1021,4 27 0,0
19.06.2018 03:00:00 15,2 14,7 13 7 W 1021,2 9 0,0
19.06.2018 02:00:00 15,0 14,5 15 8 W 1020,7 29 0,2
19.06.2018 01:00:00 15,3 14,7 13 7 W 1020,8 3,7 0,0
19.06.2018 00:00:00 16,0 15,4 15 8 W 1020,5 35 0,2
18.06.2018 23:00:00 16,4 15,5 13 7 WSW 1020,5 4,2 0,0
18.06.2018 22:00:00 16,9 14,8 11 6 SW 1020,3 11 0,0
18.06.2018 21:00:00 17,4 14,5 11 6 SW 1019,9 19 0,0
18.06.2018 20:00:00 18,3 14,5 15 8 WSW 1019,5 30 0,0
18.06.2018 19:00:00 19,1 14,2 16 9 WSW 1019,1 22 0,0
18.06.2018 18:00:00 21,4 14,8 13 7 W 1018,7 19 0,0
18.06.2018 17:00:00 20,4 15,0 18 10 W 1018,7 30 0,0
18.06.2018 16:00:00 21,4 14,2 16 9 W 1018,8 20 0,0
18.06.2018 15:00:00 22,4 14,3 18 10 W 1018,3 30 0,0
18.06.2018 14:00:00 21,4 12,9 15 8 W 1018,6 14 0,0
18.06.2018 13:00:00 20,1 12,2 13 7 W 1018,9 28 0,0
18.06.2018 12:00:00 18,1 11,9 15 8 W 1019,0 29 0,0
18.06.2018 11:00:00 16,8 12,0 11 6 W 1019,0 17 0,0
18.06.2018 10:00:00 16,1 12,2 13 7 W 1018,8 24 0,0
18.06.2018 09:00:00 14,6 12,6 11 6 W 1018,9 26 0,0
18.06.2018 08:00:00 13,9 12,6 13 7 W 1018,1 23 0,0
18.06.2018 07:00:00 13,4 12,4 11 6 W 1017,4 26 0,0
18.06.2018 06:00:00 12,5 11,8 11 6 WSW 1017,2 28 0,0
18.06.2018 05:00:00 12,5 12,0 9 5 W 1017,2 24 0,0
18.06.2018 04:00:00 12,4 12,3 13 7 W 1017,1 28 0,0
18.06.2018 03:00:00 13,9 13,8 11 6 W 1016,5 3,1 0,2
18.06.2018 02:00:00 14,3 14,2 8 4 WSW 1016,6 1,7 0,2
18.06.2018 01:00:00 14,1 14,0 11 6 SW 1016,5 0,7 0,0
18.06.2018 00:00:00 13,9 13,8 11 6 SW 1016,6 0,7 0,0
17.06.2018 23:00:00 13,8 13,6 13 7 SW 1016,9 2,6 0,0
17.06.2018 22:00:00 13,6 13,3 11 6 SSW 1016,5 7 0,0
17.06.2018 21:00:00 13,7 12,8 11 6 SSW 1016,3 14 0,0
17.06.2018 20:00:00 14,2 12,6 13 7 SSW 1016,2 28 0,0
17.06.2018 19:00:00 14,2 12,2 15 8 SSW 1016,2 22 0,0
17.06.2018 18:00:00 14,4 11,9 15 8 SW 1016,0 24 0,0
17.06.2018 17:00:00 14,9 11,7 16 9 SW 1016,0 24 0,0
17.06.2018 16:00:00 14,8 11,3 16 9 SW 1016,3 30 0,0
17.06.2018 15:00:00 15,2 10,5 15 8 SW 1016,2 20 0,0
17.06.2018 14:00:00 15,6 10,5 13 7 SW 1016,1 45 0,0
17.06.2018 13:00:00 15,6 9,5 16 9 WSW 1016,1 25 0,0
17.06.2018 12:00:00 15,4 11,8 9 5 WSW 1016,2 19 0,0
17.06.2018 11:00:00 15,0 11,3 9 5 WSW 1016,1 18 0,0
17.06.2018 10:00:00 14,2 11,3 9 5 W 1016,5 23 0,0
17.06.2018 09:00:00 12,5 11,3 11 6 WSW 1016,3 19 0,0
17.06.2018 08:00:00 11,5 10,8 9 5 WSW 1016,3 10 0,2
17.06.2018 07:00:00 11,5 10,3 9 5 WSW 1015,7 14 0,2
17.06.2018 06:00:00 11,5 9,8 9 5 WSW 1015,1 19 0,0
17.06.2018 05:00:00 11,5 9,6 9 5 WSW 1014,8 21 0,0
17.06.2018 04:00:00 11,3 9,4 9 5 WSW 1014,8 18 0,0
17.06.2018 03:00:00 11,3 9,4 11 6 WSW 1014,9 21 0,0
17.06.2018 02:00:00 11,1 9,0 11 6 W 1014,9 20 0,0
17.06.2018 01:00:00 11,3 8,7 13 7 W 1014,9 25 0,0
17.06.2018 00:00:00 11,2 8,3 11 6 W 1014,5 26 0,0
16.06.2018 23:00:00 11,6 8,4 11 6 W 1014,4 29 0,0
16.06.2018 22:00:00 12,0 8,3 11 6 WSW 1014,1 27 0,0
16.06.2018 21:00:00 12,7 8,0 13 7 W 1013,6 25 0,0
16.06.2018 20:00:00 14,4 10,1 13 7 WSW 1013,0 26 0,0
16.06.2018 19:00:00 15,4 12,1 15 8 SW 1012,5 21 0,0
16.06.2018 18:00:00 15,7 12,3 16 9 SSW 1012,6 30 0,0
16.06.2018 17:00:00 15,5 12,1 15 8 SSW 1012,8 45 0,0
16.06.2018 16:00:00 14,5 12,3 13 7 SW 1013,2 40 0,0
16.06.2018 15:00:00 16,0 10,7 21 11 SW 1013,2 23 0,0
16.06.2018 14:00:00 16,1 9,9 21 11 SW 1013,2 28 0,0
16.06.2018 13:00:00 16,1 10,8 13 7 SW 1013,5 23 0,0
16.06.2018 12:00:00 16,4 9,5 11 6 SW 1013,7 28 0,0
16.06.2018 11:00:00 15,6 8,9 15 8 SW 1014,1 25 0,0
16.06.2018 10:00:00 14,7 8,9 11 6 WSW 1014,4 45 0,0
16.06.2018 09:00:00 15,6 10,6 9 5 W 1014,4 35 0,0
16.06.2018 08:00:00 12,1 9,4 8 4 WSW 1014,9 21 0,0
16.06.2018 07:00:00 11,9 8,0 8 4 WSW 1014,9 35 0,0
16.06.2018 06:00:00 11,3 7,5 4 2 SSW 1014,7 45 0,0
16.06.2018 05:00:00 11,5 6,8 4 2 SW 1015,0 35 0,0
16.06.2018 04:00:00 11,5 6,6 5 3 SSW 1015,0 40 0,0
16.06.2018 03:00:00 11,3 6,8 4 2 WNW 1015,6 40 0,0
16.06.2018 02:00:00 11,8 7,0 5 3 WNW 1015,7 30 0,0
16.06.2018 01:00:00 12,5 6,5 8 4 WNW 1015,9 40 0,0
16.06.2018 00:00:00 13,1 6,9 8 4 W 1016,0 40 0,0
15.06.2018 23:00:00 13,5 6,8 8 4 W 1016,0 45 0,0
15.06.2018 22:00:00 14,2 7,3 5 3 W 1016,3 40 0,0

tt = temperature
td = dewpoint
ff = wind speed
dd = wind direction
ppp = reduced air pressure
vv = visibility
rr = precipitation

Next stations